Home > Weather > Košice > Past weeks

Flag for Slovakia Past Weather in Košice, Slovakia — Yesterday and Last 2 Weeks

Now
72 °F

Partly sunny.


Feels Like: 75 °F
Forecast: 64 / 76 °F
Wind: 16 mph from North

Location: Kosice - Barca

Current Time: Jun 27, 2016 at 3:11:03 PM

Latest Report: Jun 27, 2016 at 2:30 PM


Visibility: N/A

Pressure: 29.95 "Hg

Humidity: 65%

Dew Point: 59 °F

Location of KošiceLocation

Past Weather in Košice — Graph

°F

Košice Temperature Yesterday

Maximum temperature yesterday: 91 °F (at 3:30 PM)
Minimum temperature yesterday: 68 °F (at 5:30 AM)
Average temperature yesterday: 78 °F

High & Low Weather Summary for the Past Weeks

 TemperatureHumidityPressure
High93 °F (Jun 24, 3:00 PM)100% (Jun 15, 2:00 AM)30.24 "Hg (Jun 15, 2:00 AM)
Low54 °F (Jun 19, 4:30 AM)28% (Jun 18, 5:30 PM)29.47 "Hg (Jun 14, 1:30 PM)
Average73 °F66%29.93 "Hg
* Reported Jun 12 2:00 PM — Jun 27 2:00 PM, Košice, Weather by CustomWeather, © 2016

Note: Actual official high and low records may vary slightly from our data, if they occured in-between our weather recording intervals... More about our weather records

Advertising

Košice Weather History for the Previous 24 Hours

Scroll right to see more
 ConditionsComfort  
Time TempWeatherWind HumidityBarometerVisibility
2:00 PM
Mon, Jun 27
72 °FSunny.20 mph69%29.95 "Hg10 mi
1:30 PM70 °FSunny.17 mph73%29.95 "Hg10 mi
1:00 PM70 °FSunny.15 mph73%29.95 "Hg10 mi
12:30 PM70 °FBroken clouds.17 mph73%29.95 "HgN/A
12:00 PM70 °FBroken clouds.16 mph78%29.95 "HgN/A
11:30 AM68 °FMore clouds than sun.16 mph78%29.95 "HgN/A
11:00 AM68 °FMore clouds than sun.17 mph78%29.95 "HgN/A
10:30 AM68 °FSunny.14 mph78%29.95 "Hg10 mi
10:00 AM68 °FSunny.17 mph83%29.95 "Hg10 mi
9:30 AM66 °FBroken clouds.14 mph94%29.98 "HgN/A
9:00 AM66 °FMore clouds than sun.9 mph94%29.98 "HgN/A
8:30 AM64 °FLight rain. Broken clouds.3 mph94%29.98 "HgN/A
8:00 AM64 °FLight rain. More clouds than sun.7 mph94%29.98 "HgN/A
7:30 AM64 °FLight rain. Partly sunny.8 mph94%29.98 "HgN/A
7:00 AM64 °FThunderstorms. Broken clouds.5 mph94%30.01 "Hg4 mi
6:30 AM64 °FThunderstorms. Broken clouds.9 mph94%30.01 "Hg1 mi
6:00 AM66 °FThunderstorms. Scattered clouds.9 mph88%29.98 "HgN/A
5:30 AM68 °FThunderstorms. Partly cloudy.9 mph83%29.98 "HgN/A
5:00 AM70 °FThunderstorms. Passing clouds.12 mph73%29.95 "HgN/A
4:30 AM70 °FThundershowers. Passing clouds.12 mph78%29.95 "HgN/A
4:00 AM70 °FClear.14 mph78%29.95 "Hg10 mi
3:30 AM70 °FClear.16 mph78%29.95 "Hg10 mi
3:00 AM70 °FClear.16 mph78%29.95 "Hg10 mi
2:30 AM72 °FClear.17 mph73%29.98 "Hg10 mi
2:00 AM72 °FClear.17 mph73%29.95 "Hg10 mi
1:30 AM72 °FClear.18 mph73%29.95 "Hg10 mi
1:00 AM73 °FClear.18 mph69%29.95 "Hg10 mi
12:30 AM73 °FClear.15 mph69%29.95 "Hg10 mi
12:00 AM73 °FClear.14 mph69%29.98 "Hg10 mi
11:30 PM
Sun, Jun 26
75 °FClear.20 mph69%29.95 "Hg10 mi
11:00 PM75 °FClear.16 mph69%29.95 "Hg10 mi
10:30 PM75 °FClear.16 mph69%29.95 "Hg10 mi
10:00 PM77 °FClear.15 mph65%29.95 "Hg10 mi
9:30 PM77 °FSunny.9 mph69%29.92 "Hg10 mi
9:00 PM75 °FSunny.2 mph74%29.92 "Hg10 mi
8:30 PM77 °FSunny.3 mph69%29.92 "Hg10 mi
8:00 PM77 °FSunny.2 mph74%29.92 "Hg10 mi
7:30 PM79 °FSunny.2 mph65%29.92 "Hg10 mi
7:00 PM77 °FSunny.1 mph74%29.92 "Hg10 mi
6:30 PM81 °FScattered clouds.1 mph62%29.92 "HgN/A
6:00 PM79 °FScattered clouds.6 mph65%29.92 "HgN/A
5:30 PM81 °FThundershowers. Scattered clouds.10 mph58%29.92 "HgN/A
5:00 PM84 °FScattered clouds.8 mph51%29.92 "HgN/A
4:30 PM86 °FScattered clouds.12 mph49%29.92 "HgN/A
4:00 PM88 °FSunny.10 mph43%29.92 "Hg10 mi
3:30 PM91 °FScattered clouds.15 mph41%29.92 "HgN/A
3:00 PM90 °FPassing clouds.13 mph43%29.92 "HgN/A
Weather by CustomWeather, © 2016

See weather overviewHow to use our weather pages